AA6MV Weather Reports


Display with metric or nautical units.
time (UTC)temp
F
wind
direction
speed
MPH
gust
MPH
rain 1hr
in
rain 24hr
in
rain mn
in
humidity
%
barometer
mb
20260507003057 75 330 0.0 6.0 0.00 0.00 0.00 14 1007.3
20260507001520 74 359 0.0 4.0 0.00 0.00 0.00 15 1007.3
20260507000128 74 27 2.0 9.0 0.00 0.00 0.00 15 1007.3
20260506234516 75 1 1.0 6.0 0.00 0.00 0.00 16 1007.2
20260506233017 75 66 3.0 8.0 0.00 0.00 0.00 15 1007.2
20260506231525 75 329 1.0 6.0 0.00 0.00 0.00 17 1007.2
20260506230023 74 15 3.0 10.0 0.00 0.00 0.00 18 1007.5
20260506224638 74 57 0.0 7.0 0.00 0.00 0.00 17 1007.5
20260506223022 74 69 2.0 9.0 0.00 0.00 0.00 18 1007.8
20260506221548 75 1 2.0 8.0 0.00 0.00 0.00 16 1007.9
20260506214651 75 107 0.0 4.0 0.00 0.00 0.00 14 1008.2
20260506213040 73 20 1.0 6.0 0.00 0.00 0.00 13 1008.4
20260506211507 72 212 0.0 6.0 0.00 0.00 0.00 11 1008.5
20260506210012 72 1 3.0 9.0 0.00 0.00 0.00 9 1008.7
20260506204505 71 15 3.0 10.0 0.00 0.00 0.00 14 1008.7
20260506203008 72 28 1.0 5.0 0.00 0.00 0.00 18 1008.9
20260506201531 72 307 0.0 5.0 0.00 0.00 0.00 21 1009.0
20260506200152 70 316 0.0 8.0 0.00 0.00 0.00 20 1009.1
20260506194516 71 7 0.0 3.0 0.00 0.00 0.00 22 1009.3
20260506193013 69 45 0.0 6.0 0.00 0.00 0.00 25 1009.4
20260506190059 69 359 3.0 7.0 0.00 0.00 0.00 23 1009.8
20260506184557 68 44 0.0 6.0 0.00 0.00 0.00 25 1009.8
20260506184516 68 350 0.0 5.0 0.00 0.00 0.00 24 1009.8
20260506183055 69 214 0.0 4.0 0.00 0.00 0.00 25 1009.9
20260506180055 67 18 0.0 5.0 0.00 0.00 0.00 28 1010.1
20260506174558 65 58 0.0 2.0 0.00 0.00 0.00 31 1010.1
20260506173057 63 42 0.0 8.0 0.00 0.00 0.00 33 1010.2
20260506170037 62 32 1.0 5.0 0.00 0.00 0.00 33 1010.1
20260506164541 63 1 0.0 5.0 0.00 0.00 0.00 36 1010.0
20260506163030 62 305 0.0 5.0 0.00 0.00 0.00 37 1010.0
20260506160035 59 1 0.0 0.0 0.00 0.00 0.00 44 1010.0
20260506154533 58 6 0.0 1.0 0.00 0.00 0.00 46 1010.0
20260506153040 57 31 0.0 0.0 0.00 0.00 0.00 52 1010.0
20260506150028 55 13 0.0 0.0 0.00 0.02 0.00 57 1010.1
20260506144537 54 358 0.0 0.0 0.00 0.02 0.00 60 1010.1
20260506143023 52 340 0.0 0.0 0.00 0.02 0.00 64 1010.0
20260506140057 48 339 0.0 0.0 0.00 0.06 0.00 72 1010.0
20260506134539 45 299 0.0 0.0 0.00 0.06 0.00 76 1009.9
20260506133035 43 295 0.0 0.0 0.00 0.06 0.00 78 1009.7
20260506130110 41 285 0.0 0.0 0.00 0.07 0.00 75 1009.3
20260506124540 42 285 0.0 0.0 0.00 0.07 0.00 75 1009.1
20260506123043 42 285 0.0 0.0 0.00 0.07 0.00 75 1009.0
20260506120038 42 257 0.0 0.0 0.00 0.07 0.00 75 1008.6
20260506114531 42 258 0.0 0.0 0.00 0.07 0.00 75 1008.4
20260506113034 42 252 0.0 0.0 0.00 0.07 0.00 75 1008.4
20260506110101 43 251 0.0 0.0 0.00 0.07 0.00 73 1008.0
20260506104605 43 263 0.0 0.0 0.00 0.07 0.00 72 1008.0
20260506103105 43 264 0.0 0.0 0.00 0.07 0.00 72 1007.9
20260506101654 44 270 0.0 0.0 0.00 0.07 0.00 72 1007.8
20260506100136 44 249 0.0 0.0 0.00 0.07 0.00 71 1007.7
20260506094527 44 250 0.0 0.0 0.00 0.07 0.00 70 1007.7
20260506093045 45 238 0.0 0.0 0.00 0.07 0.00 68 1007.7
20260506091655 45 238 0.0 0.0 0.00 0.07 0.00 67 1007.6
20260506090041 46 236 0.0 0.0 0.00 0.07 0.00 66 1007.4
20260506084539 46 243 0.0 0.0 0.00 0.07 0.00 65 1007.4
20260506083002 47 234 0.0 0.0 0.00 0.07 0.00 63 1007.3
20260506081608 48 69 0.0 0.0 0.00 0.07 0.00 62 1007.4
20260506071555 49 91 0.0 0.0 0.00 0.07 0.00 59 1007.5
20260506061517 54 18 0.0 0.0 0.00 0.07 0.00 54 1007.1
20260506044555 57 26 0.0 5.0 0.00 0.07 0.00 48 1006.4
20260506043050 57 20 0.0 0.0 0.00 0.07 0.00 46 1006.2
20260506041547 58 60 0.0 0.0 0.00 0.07 0.00 44 1006.1
20260506040056 58 56 0.0 0.0 0.00 0.07 0.00 43 1006.0
20260506033039 59 95 0.0 0.0 0.00 0.07 0.00 43 1005.5
20260506031544 60 44 0.0 0.0 0.00 0.07 0.00 42 1005.1
20260506030035 61 34 0.0 0.0 0.00 0.07 0.00 42 1004.7
20260506024534 61 45 3.0 8.0 0.00 0.07 0.00 42 1004.5
20260506023030 62 50 4.0 10.0 0.00 0.07 0.00 41 1004.2
20260506021526 62 33 4.0 11.0 0.00 0.07 0.00 40 1004.0
20260506020056 63 17 7.0 13.0 0.00 0.07 0.07 38 1003.7
20260506014542 64 32 6.0 15.0 0.00 0.07 0.07 37 1003.4
20260506013042 65 44 7.0 16.0 0.00 0.07 0.07 36 1003.3
20260506011544 66 34 8.0 18.0 0.00 0.07 0.07 37 1003.0
20260506010004 67 48 12.0 20.0 0.00 0.07 0.07 36 1002.8
20260506004505 68 57 7.0 15.0 0.00 0.07 0.07 35 1002.6